Terminal Aerodrome Forecast
Issued by NWS Columbia, SC

Home | Current Version | Previous Version | Text Only | Print | Product List | Glossary On
Versions: 1 2 3 4 5 6 7 8 9 10 11 12 13 14 15 16 17 18 19 20 21 22 23 24 25 26 27 28 29
000
FTUS42 KCAE 011500 AAA
TAFCAE
TAF AMD
KCAE 011503Z 0115/0212 02006KT P6SM SCT015 BKN050
      TEMPO 0115/0118 BKN015
     FM011800 05006KT P6SM VCSH SCT025 OVC050
     FM020500 03004KT P6SM OVC015=

USA.gov is the U.S. government's official web portal to all federal, state and local government web resources and services.